Waarnemingen

Advertentie
Mijn weer
St-Auban-Sur-Durance, Frankrijk (7588): temperatuur & dauwpunt: 17.10.2017 02:00:00 - 23.10.2017 02:00:00 (CEST)St-Auban-Sur-Durance, Frankrijk (7588): temperatuur 5cm: 17.10.2017 02:00:00 - 23.10.2017 02:00:00 (CEST)St-Auban-Sur-Durance, Frankrijk (7588): temperatuur -20cm: 17.10.2017 02:00:00 - 23.10.2017 02:00:00 (CEST)St-Auban-Sur-Durance, Frankrijk (7588): windsnelheid & windstoten: 17.10.2017 02:00:00 - 23.10.2017 02:00:00 (CEST)St-Auban-Sur-Durance, Frankrijk (7588): windrichting: 17.10.2017 02:00:00 - 23.10.2017 02:00:00 (CEST)St-Auban-Sur-Durance, Frankrijk (7588): luchtdruk: 17.10.2017 02:00:00 - 23.10.2017 02:00:00 (CEST)St-Auban-Sur-Durance, Frankrijk (7588): zicht: 17.10.2017 02:00:00 - 23.10.2017 02:00:00 (CEST)St-Auban-Sur-Durance, Frankrijk (7588): Zonneschijnduur: 17.10.2017 02:00:00 - 23.10.2017 02:00:00 (CEST)St-Auban-Sur-Durance, Frankrijk (7588): neerslag: 17.10.2017 02:00:00 - 23.10.2017 02:00:00 (CEST)
Datum & Tijd tt [°C] td [°C] tt 5cm [°C] tt -20cm [°C] ff [km/u] ff [kn] fx [km/u] fx [kn] dd ppp [hPa] vv [km] sd [min] rr [mm]
23.10.2017 02:00:00 10,9 -0,3 10,2 17,3 42 23 66 35 N 1019,2 20 0 0,0
23.10.2017 01:00:00 11,2 -0,9 10,3 17,5 32 18 72 39 N 1018,7 20 0 0,0
23.10.2017 00:00:00 11,0 -0,2 10,1 17,6 45 24 72 39 N 1018,5 20 0 0,0
22.10.2017 23:00:00 10,6 0,3 10,1 17,7 46 25 73 39 N 1018,9 20 0 0,0
22.10.2017 22:00:00 10,9 0,9 10,5 17,8 44 24 68 37 N 1018,8 20 0 0,0
22.10.2017 21:00:00 11,3 1,0 10,8 17,9 31 17 81 44 N 1019,2 20 0 0,0
22.10.2017 20:00:00 11,9 0,0 11,5 18,0 39 21 73 39 N 1018,6 20 0 0,0
22.10.2017 19:00:00 12,4 -0,2 12,0 18,0 42 23 80 43 N 1018,1 20 8 0,0
22.10.2017 18:00:00 13,6 -0,8 15,4 17,9 33 18 65 35 N 1017,2 20 60 0,0
22.10.2017 17:00:00 15,0 -1,2 17,1 17,8 31 17 54 29 N 1016,9 20 55 0,0
22.10.2017 16:00:00 15,4 -1,7 15,4 17,7 26 14 53 29 N 1016,9 20 29 0,0
22.10.2017 15:00:00 14,4 -0,5 15,6 17,5 24 13 55 30 N 1017,7 20 18 0,0
22.10.2017 14:00:00 15,7 0,3 20,0 17,5 29 16 61 33 N 1017,8 20 60 0,0
22.10.2017 13:00:00 16,6 -0,2 20,6 17,4 22 12 50 27 N 1017,6 20 60 0,0
22.10.2017 12:00:00 16,0 0,5 19,2 17,4 35 19 54 29 N 1018,1 20 60 0,0
22.10.2017 11:00:00 15,5 1,2 18,6 17,5 25 13 48 26 NNW 1018,6 20 60 0,0
22.10.2017 10:00:00 14,3 2,5 15,7 17,7 9 5 29 15 NNO 1019,0 20 60 0,0
22.10.2017 09:00:00 13,0 3,4 11,2 17,8 12 6 29 15 NNO 1019,2 20 39 0,0
22.10.2017 08:00:00 12,2 3,9 10,9 18,0 17 9 28 15 N 1019,1 20 0 0,0
22.10.2017 07:00:00 12,7 4,4 10,9 18,1 20 11 32 17 N 1019,1 20 0 0,0
22.10.2017 06:00:00 13,0 4,4 12,2 18,2 16 8 40 22 N 1018,9 20 0 0,0
22.10.2017 05:00:00 14,0 4,6 13,0 18,3 19 10 35 19 N 1019,2 20 0 0,0
22.10.2017 04:00:00 15,1 5,6 14,4 18,4 19 10 33 18 N 1019,4 20 0 0,0
22.10.2017 03:00:00 16,2 6,0 15,6 18,4 16 9 34 19 N 1019,5 20 0 0,0
22.10.2017 02:00:00 16,6 7,8 15,9 18,5 20 11 40 22 N 1019,6 20 0 0,0
22.10.2017 01:00:00 16,7 10,8 13,5 18,7 28 15 42 23 N 1019,4 20 0 0,0
22.10.2017 00:00:00 14,4 12,6 13,4 18,6 4 2 10 6 N 1019,6 19 0 0,0
21.10.2017 23:00:00 15,1 12,6 13,7 18,7 5 3 8 5 NNO 1019,7 20 0 0,0
21.10.2017 22:00:00 15,7 12,3 14,6 18,7 0 0 14 8 N 1019,2 20 0 0,0
21.10.2017 21:00:00 16,7 12,0 15,9 18,6 10 5 16 9 WZW 1018,8 20 0 0,0
21.10.2017 20:00:00 18,2 11,7 17,4 18,5 3 1 22 12 ZW 1018,2 20 0 0,0
21.10.2017 19:00:00 19,7 11,7 19,5 18,4 17 9 27 14 ZW 1017,7 20 0 0,0
21.10.2017 18:00:00 20,8 11,4 21,5 18,2 18 10 28 15 ZZW 1017,4 20 22 0,0
21.10.2017 17:00:00 21,9 10,7 23,5 17,9 19 11 31 17 ZZW 1017,2 20 26 0,0
21.10.2017 16:00:00 22,7 11,1 24,5 17,7 15 8 26 14 ZZW 1017,1 20 34 0,0
21.10.2017 15:00:00 22,5 10,3 24,3 17,4 14 7 22 12 ZZW 1017,5 20 32 0,0
21.10.2017 14:00:00 22,7 9,5 26,9 17,2 10 5 21 11 ZZW 1018,4 20 57 0,0
21.10.2017 13:00:00 21,9 11,0 26,6 17,1 11 6 16 9 ZW 1019,3 20 58 0,0
21.10.2017 12:00:00 19,7 10,4 22,4 17,1 4 2 14 7 NO 1020,5 20 60 0,0
21.10.2017 11:00:00 16,2 10,1 18,3 17,2 7 4 12 6 ONO 1021,5 20 60 0,0
21.10.2017 10:00:00 13,5 9,7 14,5 17,2 5 3 10 6 ONO 1022,1 14 60 0,0
21.10.2017 09:00:00 10,8 8,9 8,6 17,4 6 3 13 7 NO 1022,4 18 40 0,0
21.10.2017 08:00:00 9,6 8,5 7,9 17,5 10 5 13 7 NNO 1022,1 20 0 0,0
21.10.2017 07:00:00 10,4 8,7 8,7 17,6 8 4 12 7 NNO 1021,6 20 0 0,0
21.10.2017 06:00:00 10,4 8,3 9,6 17,7 9 5 13 7 NNO 1021,4 20 0 0,0
21.10.2017 05:00:00 11,5 9,1 11,4 17,8 6 3 11 6 NO 1021,3 20 0 0,0
21.10.2017 04:00:00 12,2 9,9 11,8 17,9 8 4 13 7 NO 1021,8 20 0 0,0
21.10.2017 03:00:00 12,4 9,2 11,6 18,0 7 4 21 11 NO 1022,0 20 0 0,0
21.10.2017 02:00:00 12,2 9,6 11,1 18,1 7 4 16 9 NO 1022,2 17 0 0,0
21.10.2017 01:00:00 13,1 9,2 11,7 18,1 9 5 16 9 OZO 1021,7 20 0 0,0
21.10.2017 00:00:00 13,3 9,2 11,9 18,2 4 2 10 5 OZO 1021,9 20 0 0,0
20.10.2017 23:00:00 14,1 9,7 13,5 18,3 5 3 10 5 ZZO 1021,2 20 0 0,0
20.10.2017 22:00:00 14,7 9,7 14,1 18,3 3 2 10 5 Z 1020,8 20 0 0,0
20.10.2017 21:00:00 15,9 10,2 13,9 18,3 6 4 11 6 ZZW 1020,0 20 0 0,0
20.10.2017 20:00:00 17,9 10,0 16,8 18,2 13 7 17 9 ZW 1019,1 20 0 0,0
20.10.2017 19:00:00 19,4 9,8 17,6 18,0 5 3 15 8 W 1018,1 20 21 0,0
20.10.2017 18:00:00 21,9 9,8 23,4 17,8 8 5 21 12 ZW 1017,6 20 41 0,0
20.10.2017 17:00:00 23,1 9,1 26,3 17,5 13 7 22 12 ZZW 1017,0 20 60 0,0
20.10.2017 16:00:00 23,2 8,8 27,2 17,2 13 7 22 12 ZW 1016,9 20 60 0,0
20.10.2017 15:00:00 22,9 7,8 28,1 17,0 15 8 21 11 ZZW 1017,2 20 60 0,0
20.10.2017 14:00:00 22,6 6,8 26,0 16,8 8 4 13 7 ZZW 1017,6 20 54 0,0
20.10.2017 13:00:00 20,3 3,5 22,1 16,7 2 1 11 6 N 1018,7 20 26 0,0
20.10.2017 12:00:00 17,2 3,5 18,6 16,7 4 2 12 7 N 1019,6 20 22 0,0
20.10.2017 11:00:00 15,6 4,3 14,0 16,7 6 3 13 7 ONO 1019,8 20 49 0,0
20.10.2017 10:00:00 11,5 4,9 10,7 16,8 4 2 11 6 O 1020,5 20 3 0,0
20.10.2017 09:00:00 9,6 4,6 8,9 16,9 4 2 13 7 N 1020,5 20 0 0,0
20.10.2017 08:00:00 8,6 4,8 7,9 17,0 9 5 14 8 NO 1019,5 20 0 0,0
20.10.2017 07:00:00 8,6 5,0 7,6 17,2 4 2 12 7 NO 1018,8 20 0 0,0
20.10.2017 06:00:00 8,9 4,9 8,4 17,3 5 3 13 7 ONO 1018,7 20 0 0,0
20.10.2017 05:00:00 8,1 5,7 7,0 17,5 9 5 14 7 ONO 1018,8 20 0 0,0
20.10.2017 04:00:00 7,0 5,5 6,1 17,7 4 2 8 4 O 1019,0 20 0 0,0
20.10.2017 03:00:00 7,5 5,6 6,1 17,8 3 2 8 5 WNW 1018,7 20 0 0,0
20.10.2017 02:00:00 7,5 5,6 6,3 18,0 2 1 10 6 NO 1017,9 20 0 0,0
20.10.2017 01:00:00 8,3 6,1 7,2 18,1 4 2 11 6 N 1017,2 20 0 0,0
20.10.2017 00:00:00 9,5 6,8 8,0 18,2 0 0 16 9 N 1016,9 20 0 0,0
19.10.2017 23:00:00 11,0 6,1 9,5 18,3 6 4 11 6 OZO 1016,5 20 0 0,0
19.10.2017 22:00:00 12,0 7,9 10,5 18,4 3 2 7 4 Z 1016,0 20 0 0,0
19.10.2017 21:00:00 14,3 8,9 12,7 18,4 8 4 16 8 ZW 1015,0 20 0 0,0
19.10.2017 20:00:00 15,5 8,5 13,0 18,3 4 2 16 8 Z 1014,4 20 0 0,0
19.10.2017 19:00:00 18,0 7,7 16,5 18,2 11 6 35 19 WZW 1013,2 20 0 0,0
19.10.2017 18:00:00 20,3 7,0 20,1 18,1 26 14 36 20 ZW 1012,0 20 17 0,0
19.10.2017 17:00:00 22,4 6,6 23,7 17,8 23 13 42 23 ZW 1011,7 20 39 0,0
19.10.2017 16:00:00 23,6 3,5 25,1 17,5 31 17 45 24 ZZW 1011,6 20 49 0,0
19.10.2017 15:00:00 24,2 3,5 28,4 17,3 24 13 47 25 Z 1011,5 20 60 0,0
19.10.2017 14:00:00 24,2 2,9 23,9 17,2 24 13 46 25 Z 1012,3 20 51 0,0
19.10.2017 13:00:00 21,8 4,8 23,7 17,0 21 11 34 18 ZW 1013,9 20 28 0,0
19.10.2017 12:00:00 21,0 5,7 24,5 17,0 11 6 17 9 ZW 1014,7 20 60 0,0
19.10.2017 11:00:00 18,2 7,9 16,7 17,0 2 1 9 5 OZO 1015,2 20 57 0,0
19.10.2017 10:00:00 14,5 7,5 16,2 17,1 6 4 9 5 ZZW 1016,3 20 50 0,0
19.10.2017 09:00:00 12,1 8,8 10,7 17,2 0 0 10 5 N 1016,5 20 38 0,0
19.10.2017 08:00:00 11,5 8,5 11,1 17,2 4 2 8 5 ONO 1016,0 20 0 0,0
19.10.2017 07:00:00 11,7 8,7 11,3 17,3 3 1 8 4 NNO 1016,7 19 0 0,0
19.10.2017 06:00:00 11,5 8,9 10,8 17,4 5 3 8 4 NNW 1016,6 20 0 0,0
19.10.2017 05:00:00 12,0 9,0 11,5 17,4 3 2 9 5 NNO 1015,5 20 0 0,0
19.10.2017 04:00:00 12,4 9,0 12,2 17,5 3 2 5 3 NNO 1016,2 20 0 0,0
19.10.2017 03:00:00 12,6 8,9 12,3 17,5 3 2 5 3 N 1016,7 20 0 0,0
19.10.2017 02:00:00 12,9 8,4 12,3 17,6 3 1 11 6 NNO 1017,0 20 0 0,0
19.10.2017 01:00:00 12,6 9,1 12,2 17,7 2 1 14 7 ZZW 1017,2 20 0 0,0
19.10.2017 00:00:00 13,1 9,0 12,0 17,7 7 4 13 7 ZO 1017,5 20 0 0,0
18.10.2017 23:00:00 13,8 9,2 13,4 17,7 4 2 8 4 OZO 1017,7 20 0 0,0
18.10.2017 22:00:00 14,7 9,9 13,8 17,7 3 2 11 6 WZW 1017,6 20 0 0,0
18.10.2017 21:00:00 14,5 9,5 13,8 17,7 14 8 18 10 ZZW 1017,0 20 0 0,0
18.10.2017 20:00:00 16,1 9,5 15,2 17,6 9 5 23 12 ZZW 1016,4 20 0 0,0
18.10.2017 19:00:00 18,2 8,2 17,7 17,4 16 9 39 21 ZW 1015,9 20 25 0,0
18.10.2017 18:00:00 19,8 8,5 20,4 17,2 28 15 36 19 ZW 1015,3 20 26 0,0
18.10.2017 17:00:00 21,0 8,3 21,9 16,9 23 12 36 20 ZW 1014,8 20 20 0,0
18.10.2017 16:00:00 22,6 7,2 24,0 16,6 28 15 37 20 ZZW 1014,8 20 45 0,0
18.10.2017 15:00:00 22,3 8,0 23,1 16,3 18 10 27 14 ZW 1015,3 19 53 0,0
18.10.2017 14:00:00 21,3 8,5 24,5 16,1 19 10 28 15 ZW 1016,4 20 60 0,0
18.10.2017 13:00:00 19,6 3,3 23,0 16,0 16 9 22 12 ZZW 1017,6 20 60 0,0
18.10.2017 12:00:00 16,6 4,3 18,8 16,0 6 3 14 8 NNO 1018,8 20 60 0,0
18.10.2017 11:00:00 13,0 4,2 14,5 16,2 10 5 16 8 NNO 1020,0 20 60 0,0
18.10.2017 10:00:00 8,6 3,8 8,5 16,3 9 5 15 8 NO 1021,5 20 60 0,0
18.10.2017 09:00:00 5,8 3,1 3,7 16,5 7 4 15 8 NO 1022,4 20 44 0,0
18.10.2017 08:00:00 4,2 2,2 3,1 16,7 9 5 14 8 NO 1022,6 20 0 0,0
18.10.2017 07:00:00 4,4 2,1 3,4 16,9 10 5 15 8 NO 1022,6 20 0 0,0
18.10.2017 06:00:00 4,9 2,4 3,4 17,0 11 6 15 8 NNO 1022,9 20 0 0,0
18.10.2017 05:00:00 5,7 2,9 4,3 17,2 8 4 14 8 ONO 1023,1 20 0 0,0
18.10.2017 04:00:00 6,5 2,2 5,1 17,4 9 5 15 8 NNO 1023,4 20 0 0,0
18.10.2017 03:00:00 7,5 2,4 6,0 17,5 4 2 22 12 NO 1023,5 20 0 0,0
18.10.2017 02:00:00 8,9 2,5 7,2 17,7 10 5 24 13 OZO 1023,4 20 0 0,0
18.10.2017 01:00:00 9,6 2,7 6,9 17,8 10 6 24 13 OZO 1023,4 20 0 0,0
18.10.2017 00:00:00 9,5 3,0 7,6 18,0 7 4 14 8 O 1023,7 20 0 0,0
17.10.2017 23:00:00 10,3 2,9 8,5 18,0 6 3 16 9 OZO 1023,7 20 0 0,0
17.10.2017 22:00:00 11,5 3,3 9,4 18,1 3 1 10 5 OZO 1023,2 20 0 0,0
17.10.2017 21:00:00 13,2 2,7 10,7 18,1 3 1 9 5 ZZO 1022,7 20 0 0,0
17.10.2017 20:00:00 16,7 3,0 13,0 18,0 7 4 18 10 ZZW 1022,0 20 0 0,0
17.10.2017 19:00:00 20,7 3,4 18,3 17,8 9 5 30 16 Z 1020,8 20 17 0,0
17.10.2017 18:00:00 23,0 3,5 24,8 17,6 9 5 35 19 Z 1020,4 20 60 0,0
17.10.2017 17:00:00 23,9 0,2 26,9 17,3 25 13 41 22 ZZW 1020,4 19 60 0,0
17.10.2017 16:00:00 24,8 1,0 28,1 17,0 28 15 38 21 ZW 1020,3 20 60 0,0
17.10.2017 15:00:00 24,6 4,3 28,5 16,7 21 12 32 17 ZW 1020,8 20 60 0,0
17.10.2017 14:00:00 24,1 3,4 28,6 16,5 21 11 28 15 ZW 1021,9 20 60 0,0
17.10.2017 13:00:00 21,0 2,7 24,0 16,4 4 2 13 7 ONO 1023,5 20 60 0,0
17.10.2017 12:00:00 17,9 1,8 20,1 16,4 9 5 19 10 ONO 1024,9 20 60 0,0
17.10.2017 11:00:00 14,5 2,7 16,3 16,5 6 3 14 8 NO 1026,3 20 60 0,0
17.10.2017 10:00:00 10,9 3,0 12,8 16,6 8 4 14 8 ONO 1027,5 20 60 0,0
17.10.2017 09:00:00 8,0 2,7 4,8 16,8 7 4 11 6 NNO 1028,3 20 45 0,0
17.10.2017 08:00:00 5,4 2,0 4,7 17,0 8 4 16 9 NO 1028,5 20 0 0,0
17.10.2017 07:00:00 5,6 1,5 4,9 17,2 13 7 16 9 NNO 1028,5 20 0 0,0
17.10.2017 06:00:00 5,6 1,7 4,9 17,4 9 5 15 8 NO 1028,5 20 0 0,0
17.10.2017 05:00:00 5,9 2,0 5,5 17,5 10 5 15 8 NNO 1028,7 20 0 0,0
17.10.2017 04:00:00 6,3 2,2 5,1 17,7 10 5 13 7 NO 1028,9 20 0 0,0
17.10.2017 03:00:00 6,7 1,8 5,4 17,9 6 3 16 8 NO 1029,0 20 0 0,0
17.10.2017 02:00:00 7,4 2,3 5,9 18,0 8 4 14 8 NO 1029,2 20 0 0,0

tt = temperatuur
td = dauwpunt
tt 5cm = temperatuur 5cm
tt -20cm = temperatuur -20cm
ff = windsnelheid
fx = windstoten
dd = windrichting
ppp = luchtdruk
vv = zicht
sd = Zonneschijnduur
rr = neerslag

Weerstations in de omgeving